Regional Weather Roundup
Issued by NWS Northern Indiana

Home | Current Version | Previous Version | Text Only | Print | Product List | Glossary Off
Versions: 1 2 3 4 5 6 7 8 9 10 11 12 13 14 15 16 17 18 19 20 21 22 23 24 25 26 27 28 29 30 31 32 33 34 35 36 37 38 39 40 41 42 43 44 45 46 47 48 49 50

914
ASUS43 KIWX 071900
RWRIWX

KIWX WEATHER ROUNDUP
NATIONAL WEATHER SERVICE NORTHERN INDIANA
200 PM EST SUN FEB 07 2016

NOTE: "FAIR" INDICATES FEW OR NO CLOUDS BELOW 12,000 FEET WITH NO
SIGNIFICANT WEATHER AND/OR OBSTRUCTIONS TO VISIBILITY.

* THESE STATIONS ARE NOT UNDER NWS QUALITY CONTROL. THEY ALSO MAY NOT
  REPORT WEATHER SUCH AS PRECIPITATION OR FOG.

INZ001>027-072000-
NORTHERN INDIANA

CITY           SKY/WX    TMP DP  RH WIND       PRES   REMARKS
GARY*          PTSUNNY   46  28  49 SW23G35   29.75F
SOUTH BEND     MOSUNNY   45  29  53 SW20G26   29.76F
ELKHART*       MOSUNNY   46  28  49 SW15      29.77F
GOSHEN         CLOUDY    45  30  55 SW18      29.77F
ANGOLA*        SUNNY     45  32  61 SW12      29.78F
FORT WAYNE     CLOUDY    47  31  53 SW18      29.82F
PERU/GRISSOM   PTSUNNY   49  31  50 SW16G25   29.79F

$$
INZ028>050-072000-
CENTRAL INDIANA

CITY           SKY/WX    TMP DP  RH WIND       PRES   REMARKS
LAFAYETTE      MOSUNNY   50  28  42 SW17G26   29.81F
KOKOMO*          N/A     48  -2  12 SW16G28   29.82F
MUNCIE*        MOSUNNY   52  29  41 SW12G30   29.85F
INDIANAPOLIS   PTSUNNY   54  24  31 SW21G30   29.86F

$$
MIZ043>046-050>051-056>058-064>065-071>073-077>080-072000-
SOUTHWEST LOWER MICHIGAN

CITY           SKY/WX    TMP DP  RH WIND       PRES   REMARKS
BATTLE CREEK   CLOUDY    46  29  51 SW22G28   29.74F
BENTON HARBOR  CLOUDY    44  30  57 SW17      29.74F
COLDWATER*     MOSUNNY   45  30  56 SW15G22   29.76F
HILLSDALE*     CLOUDY    45  29  54 S12G25    29.77F
HOLLAND        MOSUNNY   43  30  60 SW23G29   29.71F
GRAND RAPIDS   PTSUNNY   44  29  55 SW17      29.72F
KALAMAZOO      CLOUDY    46  29  51 S18       29.74F
STURGIS*       MOSUNNY   44  31  60 SW17G23   29.75F
THREE RIVERS*  PTSUNNY   46  32  59 SW16G24   29.75F

$$
OHZ001>008-015>018-024>025-072000-
NORTHWEST OHIO

CITY           SKY/WX    TMP DP  RH WIND       PRES   REMARKS
DEFIANCE       MOSUNNY   48  30  49 S18G28    29.82F
FINDLAY        SUNNY     51  30  44 SW23      29.87F
TOLEDO EXPRESS SUNNY     49  30  48 SW13G24   29.83F
TOLEDO METCALF SUNNY     51  31  46 SW21G30   29.85F
LIMA           SUNNY     50  28  42 SW21G26   29.87F

$$
AND FOR LAKE MICHIGAN COASTAL AND OPEN LAKE BUOY OBSERVATIONS

STATION/POSITION TEMP    WIND        PRES    VSBY  WAVE
                 AIR SEA DIR/SP/G                  HT/PER
                 (F)     (DEG/KT/KT) (MB)    (MI)  (FT/S)
CALUMET HARBOR    43     200/ 11/ 20 1006.9F
MICHIGAN CITY     43     190/ 22/ 24   N/A
BURNS HARBOR      43     230/ 19/ 28 1008.8F
SAINT JOSEPH      40     180/ 12/ 16 1008.8F

$$
&&




USA.gov is the U.S. government's official web portal to all federal, state and local government web resources and services.